Year,Month,Day,Hour,Minute,Value (Times are PST for temperature in C)
2011,04,02,00,00,5.40
2011,04,02,00,01,5.30
2011,04,02,00,02,5.30
2011,04,02,00,03,5.30
2011,04,02,00,04,5.30
2011,04,02,00,05,5.30
2011,04,02,00,06,5.30
2011,04,02,00,07,5.30
2011,04,02,00,08,5.20
2011,04,02,00,09,5.20
2011,04,02,00,10,5.20
2011,04,02,00,11,5.20
2011,04,02,00,12,5.20
2011,04,02,00,13,5.20
2011,04,02,00,14,5.20
2011,04,02,00,15,5.10
2011,04,02,00,16,5.10
2011,04,02,00,17,5.10
2011,04,02,00,18,5.10
2011,04,02,00,19,5.10
2011,04,02,00,20,5.10
2011,04,02,00,21,5.10
2011,04,02,00,22,5.10
2011,04,02,00,23,5.00
2011,04,02,00,24,5.00
2011,04,02,00,25,5.00
2011,04,02,00,26,5.00
2011,04,02,00,27,5.00
2011,04,02,00,28,5.00
2011,04,02,00,29,5.00
2011,04,02,00,30,5.00
2011,04,02,00,31,5.10
2011,04,02,00,32,5.10
2011,04,02,00,33,5.10
2011,04,02,00,34,5.10
2011,04,02,00,35,5.10
2011,04,02,00,36,5.10
2011,04,02,00,37,5.20
2011,04,02,00,38,5.20
2011,04,02,00,39,5.20
2011,04,02,00,40,5.20
2011,04,02,00,41,5.20
2011,04,02,00,42,5.20
2011,04,02,00,43,5.20
2011,04,02,00,44,5.30
2011,04,02,00,45,5.30
2011,04,02,00,46,5.30
2011,04,02,00,47,5.30
2011,04,02,00,48,5.30
2011,04,02,00,49,5.40
2011,04,02,00,50,5.40
2011,04,02,00,51,5.40
2011,04,02,00,52,5.40
2011,04,02,00,53,5.30
2011,04,02,00,54,5.30
2011,04,02,00,55,5.30
2011,04,02,00,56,5.30
2011,04,02,00,57,5.30
2011,04,02,00,58,5.40
2011,04,02,00,59,5.40
2011,04,02,01,00,5.30
2011,04,02,01,01,5.30
2011,04,02,01,02,5.30
2011,04,02,01,03,5.30
2011,04,02,01,04,5.30
2011,04,02,01,05,5.30
2011,04,02,01,06,5.30
2011,04,02,01,07,5.30
2011,04,02,01,08,5.30
2011,04,02,01,09,5.30
2011,04,02,01,10,5.30
2011,04,02,01,11,5.20
2011,04,02,01,12,5.20
2011,04,02,01,13,5.20
2011,04,02,01,14,5.20
2011,04,02,01,15,5.20
2011,04,02,01,16,5.20
2011,04,02,01,17,5.20
2011,04,02,01,18,5.20
2011,04,02,01,19,5.10
2011,04,02,01,20,5.10
2011,04,02,01,21,5.10
2011,04,02,01,22,5.10
2011,04,02,01,23,5.10
2011,04,02,01,24,5.10
2011,04,02,01,25,5.10
2011,04,02,01,26,5.00
2011,04,02,01,27,5.00
2011,04,02,01,28,5.00
2011,04,02,01,29,4.90
2011,04,02,01,30,4.90
2011,04,02,01,31,4.90
2011,04,02,01,32,4.90
2011,04,02,01,33,4.80
2011,04,02,01,34,4.80
2011,04,02,01,35,4.80
2011,04,02,01,36,4.80
2011,04,02,01,37,4.80
2011,04,02,01,38,4.80
2011,04,02,01,39,4.70
2011,04,02,01,40,4.70
2011,04,02,01,41,4.70
2011,04,02,01,42,4.70
2011,04,02,01,43,4.60
2011,04,02,01,44,4.60
2011,04,02,01,45,4.60
2011,04,02,01,46,4.60
2011,04,02,01,47,4.60
2011,04,02,01,48,4.50
2011,04,02,01,49,4.50
2011,04,02,01,50,4.50
2011,04,02,01,51,4.40
2011,04,02,01,52,4.40
2011,04,02,01,53,4.40
2011,04,02,01,54,4.40
2011,04,02,01,55,4.40
2011,04,02,01,56,4.40
2011,04,02,01,57,4.30
2011,04,02,01,58,4.30
2011,04,02,01,59,4.30
2011,04,02,02,00,4.30
2011,04,02,02,01,4.30
2011,04,02,02,02,4.30
2011,04,02,02,03,4.20
2011,04,02,02,04,4.20
2011,04,02,02,05,4.20
2011,04,02,02,06,4.20
2011,04,02,02,07,4.10
2011,04,02,02,08,4.10
2011,04,02,02,09,4.10
2011,04,02,02,10,4.10
2011,04,02,02,11,4.10
2011,04,02,02,12,4.10
2011,04,02,02,13,4.10
2011,04,02,02,14,4.10
2011,04,02,02,15,4.10
2011,04,02,02,16,4.10
2011,04,02,02,17,4.10
2011,04,02,02,18,4.10
2011,04,02,02,19,4.10
2011,04,02,02,20,4.10
2011,04,02,02,21,4.10
2011,04,02,02,22,4.10
2011,04,02,02,23,4.10
2011,04,02,02,24,4.10
2011,04,02,02,25,4.10
2011,04,02,02,26,4.10
2011,04,02,02,27,4.10
2011,04,02,02,28,4.10
2011,04,02,02,29,4.10
2011,04,02,02,30,4.10
2011,04,02,02,31,4.10
2011,04,02,02,32,4.10
2011,04,02,02,33,4.10
2011,04,02,02,34,4.10
2011,04,02,02,35,4.10
2011,04,02,02,36,4.10
2011,04,02,02,37,4.10
2011,04,02,02,38,4.10
2011,04,02,02,39,4.10
2011,04,02,02,40,4.10
2011,04,02,02,41,4.10
2011,04,02,02,42,4.10
2011,04,02,02,43,4.10
2011,04,02,02,44,4.10
2011,04,02,02,45,4.10
2011,04,02,02,46,4.10
2011,04,02,02,47,4.10
2011,04,02,02,48,4.10
2011,04,02,02,49,4.10
2011,04,02,02,50,4.10
2011,04,02,02,51,4.10
2011,04,02,02,52,4.10
2011,04,02,02,53,4.10
2011,04,02,02,54,4.10
2011,04,02,02,55,4.10
2011,04,02,02,56,4.10
2011,04,02,02,57,4.10
2011,04,02,02,58,4.10
2011,04,02,02,59,4.20
2011,04,02,03,00,4.20
2011,04,02,03,01,4.10
2011,04,02,03,02,4.10
2011,04,02,03,03,4.10
2011,04,02,03,04,4.10
2011,04,02,03,05,4.10
2011,04,02,03,06,4.10
2011,04,02,03,07,4.10
2011,04,02,03,08,4.10
2011,04,02,03,09,4.00
2011,04,02,03,10,4.00
2011,04,02,03,11,4.00
2011,04,02,03,12,4.00
2011,04,02,03,13,4.00
2011,04,02,03,14,4.00
2011,04,02,03,15,4.00
2011,04,02,03,16,4.00
2011,04,02,03,17,4.00
2011,04,02,03,18,3.90
2011,04,02,03,19,3.90
2011,04,02,03,20,3.90
2011,04,02,03,21,3.90
2011,04,02,03,22,3.90
2011,04,02,03,23,3.90
2011,04,02,03,24,3.90
2011,04,02,03,25,3.90
2011,04,02,03,26,3.80
2011,04,02,03,27,3.80
2011,04,02,03,28,3.80
2011,04,02,03,29,3.80
2011,04,02,03,30,3.80
2011,04,02,03,31,3.80
2011,04,02,03,32,3.80
2011,04,02,03,33,3.80
2011,04,02,03,34,3.80
2011,04,02,03,35,3.80
2011,04,02,03,36,3.90
2011,04,02,03,37,3.90
2011,04,02,03,38,3.90
2011,04,02,03,39,4.00
2011,04,02,03,40,4.00
2011,04,02,03,41,4.10
2011,04,02,03,42,4.10
2011,04,02,03,43,4.20
2011,04,02,03,44,4.20
2011,04,02,03,45,4.20
2011,04,02,03,46,4.30
2011,04,02,03,47,4.30
2011,04,02,03,48,4.30
2011,04,02,03,49,4.40
2011,04,02,03,50,4.40
2011,04,02,03,51,4.40
2011,04,02,03,52,4.40
2011,04,02,03,53,4.30
2011,04,02,03,54,4.30
2011,04,02,03,55,4.30
2011,04,02,03,56,4.30
2011,04,02,03,57,4.30
2011,04,02,03,58,4.30
2011,04,02,03,59,4.40
2011,04,02,04,00,4.40
2011,04,02,04,01,4.40
2011,04,02,04,02,4.50
2011,04,02,04,03,4.50
2011,04,02,04,04,4.40
2011,04,02,04,05,4.40
2011,04,02,04,06,4.40
2011,04,02,04,07,4.40
2011,04,02,04,08,4.40
2011,04,02,04,09,4.40
2011,04,02,04,10,4.30
2011,04,02,04,11,4.30
2011,04,02,04,12,4.30
2011,04,02,04,13,4.30
2011,04,02,04,14,4.30
2011,04,02,04,15,4.30
2011,04,02,04,16,4.30
2011,04,02,04,17,4.30
2011,04,02,04,18,4.30
2011,04,02,04,19,4.30
2011,04,02,04,20,4.30
2011,04,02,04,21,4.40
2011,04,02,04,22,4.40
2011,04,02,04,23,4.40
2011,04,02,04,24,4.40
2011,04,02,04,25,4.40
2011,04,02,04,26,4.50
2011,04,02,04,27,4.50
2011,04,02,04,28,4.60
2011,04,02,04,29,4.60
2011,04,02,04,30,4.60
2011,04,02,04,31,4.70
2011,04,02,04,32,4.70
2011,04,02,04,33,4.70
2011,04,02,04,34,4.70
2011,04,02,04,35,4.70
2011,04,02,04,36,4.70
2011,04,02,04,37,4.70
2011,04,02,04,38,4.80
2011,04,02,04,39,4.80
2011,04,02,04,40,4.80
2011,04,02,04,41,4.80
2011,04,02,04,42,4.80
2011,04,02,04,43,4.80
2011,04,02,04,44,4.80
2011,04,02,04,45,4.80
2011,04,02,04,46,4.80
2011,04,02,04,47,4.80
2011,04,02,04,48,4.80
2011,04,02,04,49,4.80
2011,04,02,04,50,4.80
2011,04,02,04,51,4.80
2011,04,02,04,52,4.90
2011,04,02,04,53,4.90
2011,04,02,04,54,4.90
2011,04,02,04,55,4.90
2011,04,02,04,56,4.90
2011,04,02,04,57,4.90
2011,04,02,04,58,5.00
2011,04,02,04,59,5.00
2011,04,02,05,00,5.00
2011,04,02,05,01,5.00
2011,04,02,05,02,5.00
2011,04,02,05,03,5.00
2011,04,02,05,04,5.00
2011,04,02,05,05,5.00
2011,04,02,05,06,5.00
2011,04,02,05,07,5.00
2011,04,02,05,08,5.00
2011,04,02,05,09,5.00
2011,04,02,05,10,5.00
2011,04,02,05,11,5.00
2011,04,02,05,12,5.00
2011,04,02,05,13,5.00
2011,04,02,05,14,5.00
2011,04,02,05,15,5.00
2011,04,02,05,16,5.00
2011,04,02,05,17,5.00
2011,04,02,05,18,4.90
2011,04,02,05,19,4.90
2011,04,02,05,20,4.90
2011,04,02,05,21,4.90
2011,04,02,05,22,4.90
2011,04,02,05,23,4.90
2011,04,02,05,24,4.90
2011,04,02,05,25,4.90
2011,04,02,05,26,4.90
2011,04,02,05,27,4.90
2011,04,02,05,28,4.80
2011,04,02,05,29,4.80
2011,04,02,05,30,4.80
2011,04,02,05,31,4.80
2011,04,02,05,32,4.80
2011,04,02,05,33,4.80
2011,04,02,05,34,4.80
2011,04,02,05,35,4.80
2011,04,02,05,36,4.80
2011,04,02,05,37,4.80
2011,04,02,05,38,4.80
2011,04,02,05,39,4.80
2011,04,02,05,40,4.80
2011,04,02,05,41,4.80
2011,04,02,05,42,4.80
2011,04,02,05,43,4.90
2011,04,02,05,44,4.90
2011,04,02,05,45,4.90
2011,04,02,05,46,4.90
2011,04,02,05,47,4.90
2011,04,02,05,48,5.00
2011,04,02,05,49,5.00
2011,04,02,05,50,5.00
2011,04,02,05,51,5.00
2011,04,02,05,52,5.00
2011,04,02,05,53,5.00
2011,04,02,05,54,5.00
2011,04,02,05,55,5.00
2011,04,02,05,56,5.10
2011,04,02,05,57,5.10
2011,04,02,05,58,5.10
2011,04,02,05,59,5.10
2011,04,02,06,00,5.10
2011,04,02,06,01,5.20
2011,04,02,06,02,5.20
2011,04,02,06,03,5.20
2011,04,02,06,04,5.20
2011,04,02,06,05,5.20
2011,04,02,06,06,5.20
2011,04,02,06,07,5.30
2011,04,02,06,08,5.30
2011,04,02,06,09,5.30
2011,04,02,06,10,5.30
2011,04,02,06,11,5.30
2011,04,02,06,12,5.30
2011,04,02,06,13,5.30
2011,04,02,06,14,5.30
2011,04,02,06,15,5.30
2011,04,02,06,16,5.20
2011,04,02,06,17,5.20
2011,04,02,06,18,5.20
2011,04,02,06,19,5.20
2011,04,02,06,20,5.20
2011,04,02,06,21,5.20
2011,04,02,06,22,5.20
2011,04,02,06,23,5.20
2011,04,02,06,24,5.20
2011,04,02,06,25,5.10
2011,04,02,06,26,5.10
2011,04,02,06,27,5.10
2011,04,02,06,28,5.10
2011,04,02,06,29,5.20
2011,04,02,06,30,5.20
2011,04,02,06,31,5.20
2011,04,02,06,32,5.20
2011,04,02,06,33,5.20
2011,04,02,06,34,5.20
2011,04,02,06,35,5.20
2011,04,02,06,36,5.20
2011,04,02,06,37,5.20
2011,04,02,06,38,5.20
2011,04,02,06,39,5.20
2011,04,02,06,40,5.10
2011,04,02,06,41,5.10
2011,04,02,06,42,5.20
2011,04,02,06,43,5.20
2011,04,02,06,44,5.10
2011,04,02,06,45,5.10
2011,04,02,06,46,5.10
2011,04,02,06,47,5.20
2011,04,02,06,48,5.20
2011,04,02,06,49,5.20
2011,04,02,06,50,5.20
2011,04,02,06,51,5.20
2011,04,02,06,52,5.20
2011,04,02,06,53,5.20
2011,04,02,06,54,5.20
2011,04,02,06,55,5.20
2011,04,02,06,56,5.20
2011,04,02,06,57,5.20
2011,04,02,06,58,5.10
2011,04,02,06,59,5.10
2011,04,02,07,00,5.10
2011,04,02,07,01,5.10
2011,04,02,07,02,5.10
2011,04,02,07,03,5.10
2011,04,02,07,04,5.10
2011,04,02,07,05,5.10
2011,04,02,07,06,5.10
2011,04,02,07,07,5.10
2011,04,02,07,08,5.20
2011,04,02,07,09,5.20
2011,04,02,07,10,5.20
2011,04,02,07,11,5.20
2011,04,02,07,12,5.20
2011,04,02,07,13,5.20
2011,04,02,07,14,5.20
2011,04,02,07,15,5.30
2011,04,02,07,16,5.30
2011,04,02,07,17,5.30
2011,04,02,07,18,5.30
2011,04,02,07,19,5.40
2011,04,02,07,20,5.40
2011,04,02,07,21,5.40
2011,04,02,07,22,5.40
2011,04,02,07,23,5.40
2011,04,02,07,24,5.50
2011,04,02,07,25,5.50
2011,04,02,07,26,5.50
2011,04,02,07,27,5.50
2011,04,02,07,28,5.50
2011,04,02,07,29,5.50
2011,04,02,07,30,5.50
2011,04,02,07,31,5.50
2011,04,02,07,32,5.50
2011,04,02,07,33,5.50
2011,04,02,07,34,5.50
2011,04,02,07,35,5.50
2011,04,02,07,36,5.50
2011,04,02,07,37,5.50
2011,04,02,07,38,5.50
2011,04,02,07,39,5.50
2011,04,02,07,40,5.50
2011,04,02,07,41,5.50
2011,04,02,07,42,5.50
2011,04,02,07,43,5.50
2011,04,02,07,44,5.50
2011,04,02,07,45,5.50
2011,04,02,07,46,5.50
2011,04,02,07,47,5.50
2011,04,02,07,48,5.50
2011,04,02,07,49,5.50
2011,04,02,07,50,5.50
2011,04,02,07,51,5.50
2011,04,02,07,52,5.50
2011,04,02,07,53,5.50
2011,04,02,07,54,5.50
2011,04,02,07,55,5.50
2011,04,02,07,56,5.50
2011,04,02,07,57,5.50
2011,04,02,07,58,5.50
2011,04,02,07,59,5.50
2011,04,02,08,00,5.50
2011,04,02,08,01,5.50
2011,04,02,08,02,5.60
2011,04,02,08,03,5.60
2011,04,02,08,04,5.60
2011,04,02,08,05,5.60
2011,04,02,08,06,5.60
2011,04,02,08,07,5.60
2011,04,02,08,08,5.70
2011,04,02,08,09,5.70
2011,04,02,08,10,5.70
2011,04,02,08,11,5.80
2011,04,02,08,12,5.80
2011,04,02,08,13,5.80
2011,04,02,08,14,5.80
2011,04,02,08,15,5.80
2011,04,02,08,16,5.90
2011,04,02,08,17,5.90
2011,04,02,08,18,5.90
2011,04,02,08,19,5.90
2011,04,02,08,20,6.00
2011,04,02,08,21,6.00
2011,04,02,08,22,6.00
2011,04,02,08,23,6.00
2011,04,02,08,24,6.00
2011,04,02,08,25,6.00
2011,04,02,08,26,6.00
2011,04,02,08,27,6.10
2011,04,02,08,28,6.10
2011,04,02,08,29,6.10
2011,04,02,08,30,6.10
2011,04,02,08,31,6.10
2011,04,02,08,32,6.10
2011,04,02,08,33,6.20
2011,04,02,08,34,6.20
2011,04,02,08,35,6.20
2011,04,02,08,36,6.20
2011,04,02,08,37,6.20
2011,04,02,08,38,6.20
2011,04,02,08,39,6.30
2011,04,02,08,40,6.30
2011,04,02,08,41,6.30
2011,04,02,08,42,6.30
2011,04,02,08,43,6.40
2011,04,02,08,44,6.40
2011,04,02,08,45,6.40
2011,04,02,08,46,6.50
2011,04,02,08,47,6.50
2011,04,02,08,48,6.60
2011,04,02,08,49,6.60
2011,04,02,08,50,6.60
2011,04,02,08,51,6.60
2011,04,02,08,52,6.60
2011,04,02,08,53,6.60
2011,04,02,08,54,6.60
2011,04,02,08,55,6.60
2011,04,02,08,56,6.60
2011,04,02,08,57,6.60
2011,04,02,08,58,6.60
2011,04,02,08,59,6.60
2011,04,02,09,00,6.60
2011,04,02,09,01,6.60
2011,04,02,09,02,6.60
2011,04,02,09,03,6.60
2011,04,02,09,04,6.60
2011,04,02,09,05,6.70
2011,04,02,09,06,6.70
2011,04,02,09,07,6.70
2011,04,02,09,08,6.80
2011,04,02,09,09,6.80
2011,04,02,09,10,6.90
2011,04,02,09,11,6.90
2011,04,02,09,12,7.00
2011,04,02,09,13,7.00
2011,04,02,09,14,7.00
2011,04,02,09,15,7.00
2011,04,02,09,16,7.00
2011,04,02,09,17,7.00
2011,04,02,09,18,7.10
2011,04,02,09,19,7.20
2011,04,02,09,20,7.20
2011,04,02,09,21,7.30
2011,04,02,09,22,7.40
2011,04,02,09,23,7.50
2011,04,02,09,24,7.50
2011,04,02,09,25,7.50
2011,04,02,09,26,7.50
2011,04,02,09,27,7.50
2011,04,02,09,28,7.50
2011,04,02,09,29,7.50
2011,04,02,09,30,7.50
2011,04,02,09,31,7.50
2011,04,02,09,32,7.40
2011,04,02,09,33,7.40
2011,04,02,09,34,7.40
2011,04,02,09,35,7.40
2011,04,02,09,36,7.40
2011,04,02,09,37,7.30
2011,04,02,09,38,7.30
2011,04,02,09,39,7.30
2011,04,02,09,40,7.30
2011,04,02,09,41,7.30
2011,04,02,09,42,7.30
2011,04,02,09,43,7.40
2011,04,02,09,44,7.40
2011,04,02,09,45,7.50
2011,04,02,09,46,7.50
2011,04,02,09,47,7.50
2011,04,02,09,48,7.60
2011,04,02,09,49,7.60
2011,04,02,09,50,7.60
2011,04,02,09,51,7.60
2011,04,02,09,52,7.60
2011,04,02,09,53,7.60
2011,04,02,09,54,7.70
2011,04,02,09,55,7.70
2011,04,02,09,56,7.70
2011,04,02,09,57,7.70
2011,04,02,09,58,7.70
2011,04,02,09,59,7.70
2011,04,02,10,00,7.80
2011,04,02,10,01,7.80
2011,04,02,10,02,7.80
2011,04,02,10,03,7.80
2011,04,02,10,04,7.70
2011,04,02,10,05,7.70
2011,04,02,10,06,7.70
2011,04,02,10,07,7.70
2011,04,02,10,08,7.80
2011,04,02,10,09,7.80
2011,04,02,10,10,7.80
2011,04,02,10,11,7.80
2011,04,02,10,12,7.80
2011,04,02,10,13,7.80
2011,04,02,10,14,7.80
2011,04,02,10,15,7.80
2011,04,02,10,16,7.70
2011,04,02,10,17,7.70
2011,04,02,10,18,7.80
2011,04,02,10,19,7.80
2011,04,02,10,20,7.80
2011,04,02,10,21,7.80
2011,04,02,10,22,7.80
2011,04,02,10,23,7.80
2011,04,02,10,24,7.90
2011,04,02,10,25,7.90
2011,04,02,10,26,7.90
2011,04,02,10,27,7.80
2011,04,02,10,28,7.80
2011,04,02,10,29,7.70
2011,04,02,10,30,7.70
2011,04,02,10,31,7.80
2011,04,02,10,32,7.80
2011,04,02,10,33,7.90
2011,04,02,10,34,7.90
2011,04,02,10,35,8.00
2011,04,02,10,36,8.00
2011,04,02,10,37,8.00
2011,04,02,10,38,8.00
2011,04,02,10,39,8.00
2011,04,02,10,40,8.10
2011,04,02,10,41,8.10
2011,04,02,10,42,8.10
2011,04,02,10,43,8.00
2011,04,02,10,44,8.00
2011,04,02,10,45,8.00
2011,04,02,10,46,7.90
2011,04,02,10,47,7.90
2011,04,02,10,48,8.00
2011,04,02,10,49,8.00
2011,04,02,10,50,8.10
2011,04,02,10,51,8.10
2011,04,02,10,52,8.10
2011,04,02,10,53,8.00
2011,04,02,10,54,8.00
2011,04,02,10,55,7.90
2011,04,02,10,56,7.90
2011,04,02,10,57,7.90
2011,04,02,10,58,7.90
2011,04,02,10,59,8.00
2011,04,02,11,00,8.00
2011,04,02,11,01,8.10
2011,04,02,11,02,8.10
2011,04,02,11,03,8.10
2011,04,02,11,04,8.10
2011,04,02,11,05,8.20
2011,04,02,11,06,8.20
2011,04,02,11,07,8.20
2011,04,02,11,08,8.30
2011,04,02,11,09,8.40
2011,04,02,11,10,8.50
2011,04,02,11,11,8.60
2011,04,02,11,12,8.70
2011,04,02,11,13,8.60
2011,04,02,11,14,8.60
2011,04,02,11,15,8.60
2011,04,02,11,16,8.50
2011,04,02,11,17,8.40
2011,04,02,11,18,8.40
2011,04,02,11,19,8.40
2011,04,02,11,20,8.40
2011,04,02,11,21,8.40
2011,04,02,11,22,8.40
2011,04,02,11,23,8.40
2011,04,02,11,24,8.40
2011,04,02,11,25,8.50
2011,04,02,11,26,8.60
2011,04,02,11,27,8.70
2011,04,02,11,28,8.70
2011,04,02,11,29,8.70
2011,04,02,11,30,8.70
2011,04,02,11,31,8.70
2011,04,02,11,32,8.70
2011,04,02,11,33,8.70
2011,04,02,11,34,8.60
2011,04,02,11,35,8.50
2011,04,02,11,36,8.40
2011,04,02,11,37,8.50
2011,04,02,11,38,8.50
2011,04,02,11,39,8.50
2011,04,02,11,40,8.50
2011,04,02,11,41,8.50
2011,04,02,11,42,8.50
2011,04,02,11,43,8.60
2011,04,02,11,44,8.60
2011,04,02,11,45,8.60
2011,04,02,11,46,8.50
2011,04,02,11,47,8.50
2011,04,02,11,48,8.60
2011,04,02,11,49,8.60
2011,04,02,11,50,8.60
2011,04,02,11,51,8.70
2011,04,02,11,52,8.70
2011,04,02,11,53,8.70
2011,04,02,11,54,8.70
2011,04,02,11,55,8.80
2011,04,02,11,56,8.80
2011,04,02,11,57,8.80
2011,04,02,11,58,8.80
2011,04,02,11,59,8.70
2011,04,02,12,00,8.70
2011,04,02,12,01,8.60
2011,04,02,12,02,8.60
2011,04,02,12,03,8.50
2011,04,02,12,04,8.40
2011,04,02,12,05,8.40
2011,04,02,12,06,8.40
2011,04,02,12,07,8.50
2011,04,02,12,08,8.50
2011,04,02,12,09,8.60
2011,04,02,12,10,8.60
2011,04,02,12,11,8.60
2011,04,02,12,12,8.60
2011,04,02,12,13,8.60
2011,04,02,12,14,8.50
2011,04,02,12,15,8.60
2011,04,02,12,16,8.60
2011,04,02,12,17,8.60
2011,04,02,12,18,8.60
2011,04,02,12,19,8.60
2011,04,02,12,20,8.60
2011,04,02,12,21,8.50
2011,04,02,12,22,8.60
2011,04,02,12,23,8.70
2011,04,02,12,24,8.60
2011,04,02,12,25,8.60
2011,04,02,12,26,8.50
2011,04,02,12,27,8.40
2011,04,02,12,28,8.40
2011,04,02,12,29,8.50
2011,04,02,12,30,8.60
2011,04,02,12,31,8.60
2011,04,02,12,32,8.70
2011,04,02,12,33,8.60
2011,04,02,12,34,8.60
2011,04,02,12,35,8.60
2011,04,02,12,36,8.60
2011,04,02,12,37,8.50
2011,04,02,12,38,8.50
2011,04,02,12,39,8.40
2011,04,02,12,40,8.50
2011,04,02,12,41,8.60
2011,04,02,12,42,8.70
2011,04,02,12,43,8.80
2011,04,02,12,44,8.80
2011,04,02,12,45,8.90
2011,04,02,12,46,8.90
2011,04,02,12,47,9.00
2011,04,02,12,48,9.00
2011,04,02,12,49,9.10
2011,04,02,12,50,9.00
2011,04,02,12,51,9.00
2011,04,02,12,52,9.00
2011,04,02,12,53,8.90
2011,04,02,12,54,8.90
2011,04,02,12,55,8.90
2011,04,02,12,56,8.90
2011,04,02,12,57,8.90
2011,04,02,12,58,9.00
2011,04,02,12,59,9.00
2011,04,02,13,00,9.10
2011,04,02,13,01,9.10
2011,04,02,13,02,9.20
2011,04,02,13,03,9.20
2011,04,02,13,04,9.20
2011,04,02,13,05,9.10
2011,04,02,13,06,9.00
2011,04,02,13,07,8.90
2011,04,02,13,08,9.00
2011,04,02,13,09,9.00
2011,04,02,13,10,9.00
2011,04,02,13,11,9.10
2011,04,02,13,12,9.10
2011,04,02,13,13,9.10
2011,04,02,13,14,9.00
2011,04,02,13,15,8.90
2011,04,02,13,16,9.00
2011,04,02,13,17,9.00
2011,04,02,13,18,9.10
2011,04,02,13,19,9.10
2011,04,02,13,20,9.10
2011,04,02,13,21,9.10
2011,04,02,13,22,9.10
2011,04,02,13,23,9.10
2011,04,02,13,24,9.00
2011,04,02,13,25,9.00
2011,04,02,13,26,9.10
2011,04,02,13,27,9.10
2011,04,02,13,28,9.20
2011,04,02,13,29,9.30
2011,04,02,13,30,9.40
2011,04,02,13,31,9.50
2011,04,02,13,32,9.60
2011,04,02,13,33,9.80
2011,04,02,13,34,9.80
2011,04,02,13,35,9.80
2011,04,02,13,36,9.80
2011,04,02,13,37,9.70
2011,04,02,13,38,9.60
2011,04,02,13,39,9.60
2011,04,02,13,40,9.60
2011,04,02,13,41,9.60
2011,04,02,13,42,9.70
2011,04,02,13,43,9.70
2011,04,02,13,44,9.70
2011,04,02,13,45,9.70
2011,04,02,13,46,9.70
2011,04,02,13,47,9.70
2011,04,02,13,48,9.60
2011,04,02,13,49,9.60
2011,04,02,13,50,9.70
2011,04,02,13,51,9.70
2011,04,02,13,52,9.60
2011,04,02,13,53,9.50
2011,04,02,13,54,9.50
2011,04,02,13,55,9.40
2011,04,02,13,56,9.40
2011,04,02,13,57,9.50
2011,04,02,13,58,9.50
2011,04,02,13,59,9.60
2011,04,02,14,00,9.70
2011,04,02,14,01,9.80
2011,04,02,14,02,9.90
2011,04,02,14,03,9.90
2011,04,02,14,04,9.90
2011,04,02,14,05,9.90
2011,04,02,14,06,10.00
2011,04,02,14,07,10.10
2011,04,02,14,08,10.10
2011,04,02,14,09,10.20
2011,04,02,14,10,10.20
2011,04,02,14,11,10.20
2011,04,02,14,12,10.10
2011,04,02,14,13,10.10
2011,04,02,14,14,10.10
2011,04,02,14,15,10.20
2011,04,02,14,16,10.20
2011,04,02,14,17,10.20
2011,04,02,14,18,10.20
2011,04,02,14,19,10.30
2011,04,02,14,20,10.40
2011,04,02,14,21,10.50
2011,04,02,14,22,10.60
2011,04,02,14,23,10.50
2011,04,02,14,24,10.30
2011,04,02,14,25,10.20
2011,04,02,14,26,10.10
2011,04,02,14,27,10.10
2011,04,02,14,28,10.00
2011,04,02,14,29,10.00
2011,04,02,14,30,10.00
2011,04,02,14,31,10.00
2011,04,02,14,32,10.00
2011,04,02,14,33,10.10
2011,04,02,14,34,10.20
2011,04,02,14,35,10.30
2011,04,02,14,36,10.30
2011,04,02,14,37,10.30
2011,04,02,14,38,10.30
2011,04,02,14,39,10.30
2011,04,02,14,40,10.40
2011,04,02,14,41,10.40
2011,04,02,14,42,10.30
2011,04,02,14,43,10.40
2011,04,02,14,44,10.40
2011,04,02,14,45,10.50
2011,04,02,14,46,10.60
2011,04,02,14,47,10.60
2011,04,02,14,48,10.70
2011,04,02,14,49,10.60
2011,04,02,14,50,10.50
2011,04,02,14,51,10.40
2011,04,02,14,52,10.40
2011,04,02,14,53,10.50
2011,04,02,14,54,10.50
2011,04,02,14,55,10.40
2011,04,02,14,56,10.40
2011,04,02,14,57,10.40
2011,04,02,14,58,10.40
2011,04,02,14,59,10.30
2011,04,02,15,00,10.40
2011,04,02,15,01,10.40
2011,04,02,15,02,10.40
2011,04,02,15,03,10.40
2011,04,02,15,04,10.40
2011,04,02,15,05,10.40
2011,04,02,15,06,10.40
2011,04,02,15,07,10.40
2011,04,02,15,08,10.40
2011,04,02,15,09,10.50
2011,04,02,15,10,10.60
2011,04,02,15,11,10.60
2011,04,02,15,12,10.50
2011,04,02,15,13,10.50
2011,04,02,15,14,10.50
2011,04,02,15,15,10.50
2011,04,02,15,16,10.60
2011,04,02,15,17,10.50
2011,04,02,15,18,10.50
2011,04,02,15,19,10.50
2011,04,02,15,20,10.50
2011,04,02,15,21,10.50
2011,04,02,15,22,10.50
2011,04,02,15,23,10.40
2011,04,02,15,24,10.50
2011,04,02,15,25,10.50
2011,04,02,15,26,10.50
2011,04,02,15,27,10.40
2011,04,02,15,28,10.50
2011,04,02,15,29,10.50
2011,04,02,15,30,10.50
2011,04,02,15,31,10.60
2011,04,02,15,32,10.70
2011,04,02,15,33,10.80
2011,04,02,15,34,10.70
2011,04,02,15,35,10.60
2011,04,02,15,36,10.50
2011,04,02,15,37,10.50
2011,04,02,15,38,10.60
2011,04,02,15,39,10.60
2011,04,02,15,40,10.70
2011,04,02,15,41,10.80
2011,04,02,15,42,10.80
2011,04,02,15,43,10.90
2011,04,02,15,44,11.00
2011,04,02,15,45,11.00
2011,04,02,15,46,11.00
2011,04,02,15,47,11.00
2011,04,02,15,48,11.00
2011,04,02,15,49,11.00
2011,04,02,15,50,11.10
2011,04,02,15,51,11.10
2011,04,02,15,52,11.00
2011,04,02,15,53,11.00
2011,04,02,15,54,11.00
2011,04,02,15,55,11.00
2011,04,02,15,56,11.10
2011,04,02,15,57,11.10
2011,04,02,15,58,11.00
2011,04,02,15,59,11.00
2011,04,02,16,00,10.90
2011,04,02,16,01,10.80
2011,04,02,16,02,10.80
2011,04,02,16,03,10.80
2011,04,02,16,04,10.80
2011,04,02,16,05,10.80
2011,04,02,16,06,10.80
2011,04,02,16,07,10.80
2011,04,02,16,08,10.90
2011,04,02,16,09,10.90
2011,04,02,16,10,10.80
2011,04,02,16,11,10.80
2011,04,02,16,12,10.80
2011,04,02,16,13,10.70
2011,04,02,16,14,10.70
2011,04,02,16,15,10.70
2011,04,02,16,16,10.60
2011,04,02,16,17,10.60
2011,04,02,16,18,10.60
2011,04,02,16,19,10.60
2011,04,02,16,20,10.50
2011,04,02,16,21,10.60
2011,04,02,16,22,10.60
2011,04,02,16,23,10.60
2011,04,02,16,24,10.70
2011,04,02,16,25,10.70
2011,04,02,16,26,10.80
2011,04,02,16,27,10.80
2011,04,02,16,28,10.80
2011,04,02,16,29,10.80
2011,04,02,16,30,10.70
2011,04,02,16,31,10.70
2011,04,02,16,32,10.70
2011,04,02,16,33,10.70
2011,04,02,16,34,10.70
2011,04,02,16,35,10.70
2011,04,02,16,36,10.70
2011,04,02,16,37,10.70
2011,04,02,16,38,10.70
2011,04,02,16,39,10.70
2011,04,02,16,40,10.70
2011,04,02,16,41,10.80
2011,04,02,16,42,10.80
2011,04,02,16,43,10.90
2011,04,02,16,44,11.00
2011,04,02,16,45,11.00
2011,04,02,16,46,10.90
2011,04,02,16,47,10.90
2011,04,02,16,48,10.90
2011,04,02,16,49,10.90
2011,04,02,16,50,10.80
2011,04,02,16,51,10.80
2011,04,02,16,52,10.80
2011,04,02,16,53,10.70
2011,04,02,16,54,10.70
2011,04,02,16,55,10.70
2011,04,02,16,56,10.70
2011,04,02,16,57,10.70
2011,04,02,16,58,10.70
2011,04,02,16,59,10.70
2011,04,02,17,00,10.70
2011,04,02,17,01,10.60
2011,04,02,17,02,10.60
2011,04,02,17,03,10.60
2011,04,02,17,04,10.60
2011,04,02,17,05,10.60
2011,04,02,17,06,10.60
2011,04,02,17,07,10.60
2011,04,02,17,08,10.60
2011,04,02,17,09,10.60
2011,04,02,17,10,10.70
2011,04,02,17,11,10.80
2011,04,02,17,12,10.80
2011,04,02,17,13,10.80
2011,04,02,17,14,10.80
2011,04,02,17,15,10.80
2011,04,02,17,16,10.80
2011,04,02,17,17,10.80
2011,04,02,17,18,10.80
2011,04,02,17,19,10.90
2011,04,02,17,20,10.90
2011,04,02,17,21,10.90
2011,04,02,17,22,10.90
2011,04,02,17,23,10.90
2011,04,02,17,24,10.90
2011,04,02,17,25,10.90
2011,04,02,17,26,10.80
2011,04,02,17,27,10.80
2011,04,02,17,28,10.80
2011,04,02,17,29,10.80
2011,04,02,17,30,10.80
2011,04,02,17,31,10.70
2011,04,02,17,32,10.70
2011,04,02,17,33,10.70
2011,04,02,17,34,10.70
2011,04,02,17,35,10.70
2011,04,02,17,36,10.70
2011,04,02,17,37,10.70
2011,04,02,17,38,10.70
2011,04,02,17,39,10.70
2011,04,02,17,40,10.70
2011,04,02,17,41,10.80
2011,04,02,17,42,10.80
2011,04,02,17,43,10.80
2011,04,02,17,44,10.80
2011,04,02,17,45,10.80
2011,04,02,17,46,10.80
2011,04,02,17,47,10.70
2011,04,02,17,48,10.70
2011,04,02,17,49,10.70
2011,04,02,17,50,10.70
2011,04,02,17,51,10.70
2011,04,02,17,52,10.80
2011,04,02,17,53,10.80
2011,04,02,17,54,10.80
2011,04,02,17,55,10.80
2011,04,02,17,56,10.80